<?xml version="1.0" encoding="UTF-8" standalone="no" ?>
<gpx xmlns="http://www.topografix.com/GPX/1/1" xmlns:xsi="http://www.w3.org/2001/XMLSchema-instance" xsi:schemaLocation="http://www.topografix.com/GPX/1/1 http://www.topografix.com/GPX/1/1/gpx.xsd" version="1.1" creator="VisuGPX - https://www.visugpx.com">
  <metadata>
    <name>Montée du soir</name>
    <desc><![CDATA[Court tracé pour une préparation de rando + bivouac.]]></desc>
  </metadata>
  <trk>
    <name><![CDATA[montée]]></name>
    <trkseg>
      <trkpt lat="45.42096" lon="5.93784">
        <ele>1433.4</ele>
        <time>2018-08-11T17:14:14Z</time>
      </trkpt>
      <trkpt lat="45.42108" lon="5.9376">
        <ele>1441.6</ele>
        <time>2018-08-11T17:14:14Z</time>
      </trkpt>
      <trkpt lat="45.42191" lon="5.9376">
        <ele>1467.1</ele>
        <time>2018-08-11T17:14:14Z</time>
      </trkpt>
      <trkpt lat="45.4225" lon="5.93791">
        <ele>1475.6</ele>
        <time>2018-08-11T17:14:14Z</time>
      </trkpt>
      <trkpt lat="45.42272" lon="5.9378">
        <ele>1487.7</ele>
        <time>2018-08-11T17:14:14Z</time>
      </trkpt>
      <trkpt lat="45.42322" lon="5.93778">
        <ele>1508.2</ele>
        <time>2018-08-11T17:14:14Z</time>
      </trkpt>
      <trkpt lat="45.42388" lon="5.9376">
        <ele>1537.5</ele>
        <time>2018-08-11T17:14:14Z</time>
      </trkpt>
      <trkpt lat="45.42452" lon="5.93817">
        <ele>1533.5</ele>
        <time>2018-08-11T17:14:14Z</time>
      </trkpt>
      <trkpt lat="45.42483" lon="5.93819">
        <ele>1539</ele>
        <time>2018-08-11T17:14:14Z</time>
      </trkpt>
      <trkpt lat="45.42474" lon="5.93769">
        <ele>1559.7</ele>
        <time>2018-08-11T17:14:14Z</time>
      </trkpt>
      <trkpt lat="45.42445" lon="5.93717">
        <ele>1578.1</ele>
        <time>2018-08-11T17:14:14Z</time>
      </trkpt>
      <trkpt lat="45.42414" lon="5.93665">
        <ele>1596</ele>
        <time>2018-08-11T17:14:14Z</time>
      </trkpt>
      <trkpt lat="45.42475" lon="5.93719">
        <ele>1585.6</ele>
        <time>2018-08-11T17:14:14Z</time>
      </trkpt>
      <trkpt lat="45.42546" lon="5.93741">
        <ele>1592.7</ele>
        <time>2018-08-11T17:14:14Z</time>
      </trkpt>
      <trkpt lat="45.42482" lon="5.93686">
        <ele>1605.4</ele>
        <time>2018-08-11T17:14:14Z</time>
      </trkpt>
      <trkpt lat="45.4244" lon="5.93614">
        <ele>1626.2</ele>
        <time>2018-08-11T17:14:14Z</time>
      </trkpt>
      <trkpt lat="45.42387" lon="5.93547">
        <ele>1636.1</ele>
        <time>2018-08-11T17:14:14Z</time>
      </trkpt>
      <trkpt lat="45.42297" lon="5.93479">
        <ele>1634.6</ele>
        <time>2018-08-11T17:14:14Z</time>
      </trkpt>
      <trkpt lat="45.42208" lon="5.93375">
        <ele>1659.2</ele>
        <time>2018-08-11T17:14:14Z</time>
      </trkpt>
      <trkpt lat="45.42127" lon="5.93381">
        <ele>1633.7</ele>
        <time>2018-08-11T17:14:14Z</time>
      </trkpt>
      <trkpt lat="45.42059" lon="5.93346">
        <ele>1642.7</ele>
        <time>2018-08-11T17:14:14Z</time>
      </trkpt>
      <trkpt lat="45.41983" lon="5.93355">
        <ele>1627.9</ele>
        <time>2018-08-11T17:14:14Z</time>
      </trkpt>
      <trkpt lat="45.41922" lon="5.9332">
        <ele>1640.3</ele>
        <time>2018-08-11T17:14:14Z</time>
      </trkpt>
      <trkpt lat="45.41873" lon="5.93314">
        <ele>1646.6</ele>
        <time>2018-08-11T17:14:14Z</time>
      </trkpt>
      <trkpt lat="45.41874" lon="5.93272">
        <ele>1680.5</ele>
        <time>2018-08-11T17:14:14Z</time>
      </trkpt>
      <trkpt lat="45.4185" lon="5.93281">
        <ele>1675.9</ele>
        <time>2018-08-11T17:14:14Z</time>
      </trkpt>
      <trkpt lat="45.41848" lon="5.93329">
        <ele>1635.4</ele>
        <time>2018-08-11T17:14:14Z</time>
      </trkpt>
      <trkpt lat="45.41804" lon="5.93286">
        <ele>1677.1</ele>
        <time>2018-08-11T17:14:14Z</time>
      </trkpt>
      <trkpt lat="45.41778" lon="5.93301">
        <ele>1672</ele>
        <time>2018-08-11T17:14:14Z</time>
      </trkpt>
      <trkpt lat="45.41772" lon="5.93262">
        <ele>1691.1</ele>
        <time>2018-08-11T17:14:14Z</time>
      </trkpt>
      <trkpt lat="45.41787" lon="5.93201">
        <ele>1723.2</ele>
        <time>2018-08-11T17:14:14Z</time>
      </trkpt>
      <trkpt lat="45.41767" lon="5.93135">
        <ele>1750.5</ele>
        <time>2018-08-11T17:14:14Z</time>
      </trkpt>
      <trkpt lat="45.4174" lon="5.93111">
        <ele>1755.6</ele>
        <time>2018-08-11T17:14:14Z</time>
      </trkpt>
      <trkpt lat="45.41732" lon="5.93055">
        <ele>1776.8</ele>
        <time>2018-08-11T17:14:14Z</time>
      </trkpt>
      <trkpt lat="45.41735" lon="5.92972">
        <ele>1798.9</ele>
        <time>2018-08-11T17:14:14Z</time>
      </trkpt>
      <trkpt lat="45.41706" lon="5.92847">
        <ele>1802.9</ele>
        <time>2018-08-11T17:14:14Z</time>
      </trkpt>
      <trkpt lat="45.41703" lon="5.92797">
        <ele>1806.7</ele>
        <time>2018-08-11T17:14:14Z</time>
      </trkpt>
      <trkpt lat="45.41914" lon="5.92834">
        <ele>1809.9</ele>
        <time>2018-08-11T17:14:14Z</time>
      </trkpt>
      <trkpt lat="45.42066" lon="5.92906">
        <ele>1794.6</ele>
        <time>2018-08-11T17:14:14Z</time>
      </trkpt>
      <trkpt lat="45.42038" lon="5.93022">
        <ele>1809.5</ele>
        <time>2018-08-11T17:14:14Z</time>
      </trkpt>
    </trkseg>
  </trk>
</gpx>